DW2058 Weather Reports


Display with metric or nautical units.
time (UTC)temp
F
wind
direction
speed
MPH
gust
MPH
rain 1hr
in
rain 24hr
in
rain mn
in
humidity
%
barometer
mb
20260503175521 81 0 0.0 0.0 0.00 0.00 0.00 42 1024.0
20260503175022 80 0 0.0 0.0 0.00 0.00 0.00 43 1024.0
20260503174521 79 0 0.0 0.0 0.00 0.00 0.00 42 1024.0
20260503174022 79 0 0.0 0.0 0.00 0.00 0.00 43 1024.0
20260503173522 78 0 0.0 0.0 0.00 0.00 0.00 44 1024.0
20260503173022 78 0 0.0 0.0 0.00 0.00 0.00 45 1024.0
20260503172522 77 0 0.0 0.0 0.00 0.00 0.00 46 1024.0
20260503172021 77 0 0.0 0.0 0.00 0.00 0.00 46 1024.0
20260503171522 77 0 0.0 0.0 0.00 0.00 0.00 47 1024.0
20260503170522 76 0 0.0 0.0 0.00 0.00 0.00 52 1024.0
20260503150522 62 0 0.0 0.0 0.00 0.00 0.00 88 1025.0
20260503131021 48 0 0.0 0.0 0.00 0.00 0.00 98 1025.0
20260503130522 48 0 0.0 0.0 0.00 0.00 0.00 98 1025.0
20260503081021 54 0 0.0 0.0 0.00 0.00 0.00 95 1025.0
20260503072521 56 0 0.0 0.0 0.00 0.00 0.00 93 1025.0
20260503072022 56 0 0.0 0.0 0.00 0.00 0.00 93 1025.0
20260503071522 56 0 0.0 0.0 0.00 0.00 0.00 93 1025.0
20260503071021 56 0 0.0 0.0 0.00 0.00 0.00 93 1025.0
20260503070521 56 0 0.0 0.0 0.00 0.00 0.00 93 1025.0
20260503055021 59 0 0.0 0.0 0.00 0.00 0.00 88 1026.0
20260503054521 59 0 0.0 0.0 0.00 0.00 0.00 87 1026.0
20260503054021 59 0 0.0 0.0 0.00 0.00 0.00 87 1025.0
20260503053522 59 0 0.0 0.0 0.00 0.00 0.00 86 1025.0
20260503052521 60 0 0.0 0.0 0.00 0.00 0.00 86 1025.0
20260503051521 60 0 0.0 0.0 0.00 0.00 0.00 85 1025.0
20260503051021 60 0 0.0 0.0 0.00 0.00 0.00 84 1025.0
20260503050521 60 0 0.0 0.0 0.00 0.00 0.00 84 1025.0
20260503050021 60 0 0.0 0.0 0.00 0.00 0.00 84 1025.0
20260503045521 61 0 0.0 0.0 0.00 0.00 0.00 83 1025.0
20260503045021 61 0 0.0 0.0 0.00 0.00 0.00 82 1025.0
20260503044521 61 0 0.0 0.0 0.00 0.00 0.00 82 1025.0
20260503044021 61 0 0.0 0.0 0.00 0.00 0.00 82 1025.0
20260503043521 61 0 0.0 0.0 0.00 0.00 0.00 81 1025.0
20260503043021 62 0 0.0 0.0 0.00 0.00 0.00 81 1025.0
20260503042521 62 0 0.0 0.0 0.00 0.00 0.00 81 1025.0
20260503042021 62 0 0.0 0.0 0.00 0.00 0.00 80 1025.0
20260503041521 62 0 0.0 0.0 0.00 0.00 0.00 80 1025.0
20260503041021 62 0 0.0 0.0 0.00 0.00 0.00 79 1025.0
20260503040521 62 0 0.0 0.0 0.00 0.00 0.00 79 1025.0
20260503040021 63 0 0.0 0.0 0.00 0.00 0.00 78 1025.0
20260503035521 63 0 0.0 0.0 0.00 0.00 0.00 76 1025.0
20260503035021 63 0 0.0 0.0 0.00 0.00 0.00 75 1025.0
20260503034521 63 0 0.0 0.0 0.00 0.00 0.00 75 1025.0
20260503033521 64 0 0.0 0.0 0.00 0.00 0.00 73 1025.0
20260503033021 64 0 0.0 0.0 0.00 0.00 0.00 73 1025.0
20260503032521 64 0 0.0 0.0 0.00 0.00 0.00 72 1025.0
20260503032022 64 0 0.0 0.0 0.00 0.00 0.00 71 1025.0
20260503031521 65 0 0.0 0.0 0.00 0.00 0.00 71 1025.0
20260503030521 65 0 0.0 0.0 0.00 0.00 0.00 70 1025.0
20260503030021 66 0 0.0 0.0 0.00 0.00 0.00 70 1025.0
20260503025522 66 0 0.0 0.0 0.00 0.00 0.00 69 1025.0
20260503025021 66 0 0.0 0.0 0.00 0.00 0.00 69 1025.0
20260503024521 66 0 0.0 0.0 0.00 0.00 0.00 68 1025.0
20260503024021 66 0 0.0 0.0 0.00 0.00 0.00 67 1025.0
20260503023521 66 0 0.0 0.0 0.00 0.00 0.00 67 1025.0
20260503023021 67 0 0.0 0.0 0.00 0.00 0.00 67 1025.0
20260503022021 67 0 0.0 0.0 0.00 0.00 0.00 66 1025.0
20260503021521 67 0 0.0 0.0 0.00 0.00 0.00 65 1025.0
20260503021021 68 0 0.0 0.0 0.00 0.00 0.00 65 1025.0
20260503020521 68 0 0.0 0.0 0.00 0.00 0.00 65 1025.0
20260503015521 69 0 0.0 0.0 0.00 0.00 0.00 64 1025.0
20260503015021 70 0 0.0 0.0 0.00 0.00 0.00 63 1025.0
20260503014521 70 0 0.0 0.0 0.00 0.00 0.00 61 1025.0
20260503014021 70 0 0.0 0.0 0.00 0.00 0.00 60 1025.0
20260503013521 70 0 0.0 0.0 0.00 0.00 0.00 59 1025.0
20260503013021 71 0 0.0 0.0 0.00 0.00 0.00 58 1025.0
20260503012020 71 0 0.0 0.0 0.00 0.00 0.00 56 1025.0
20260503011020 71 0 0.0 0.0 0.00 0.00 0.00 55 1025.0
20260503010521 72 0 0.0 0.0 0.00 0.00 0.00 55 1025.0
20260503010021 72 0 0.0 0.0 0.00 0.00 0.00 54 1025.0
20260503005522 72 0 0.0 0.0 0.00 0.00 0.00 54 1024.0
20260503005020 72 0 0.0 0.0 0.00 0.00 0.00 55 1024.0
20260503004521 72 0 0.0 0.0 0.00 0.00 0.00 55 1024.0
20260503004021 72 0 0.0 0.0 0.00 0.00 0.00 55 1024.0
20260503003521 72 0 0.0 0.0 0.00 0.00 0.00 55 1024.0
20260503001520 72 0 0.0 0.0 0.00 0.00 0.00 55 1024.0
20260503001020 72 0 0.0 0.0 0.00 0.00 0.00 55 1024.0
20260503000521 72 0 0.0 0.0 0.00 0.00 0.00 55 1024.0
20260503000020 72 0 0.0 0.0 0.00 0.00 0.00 55 1024.0
20260502235021 72 0 0.0 0.0 0.00 0.00 0.00 54 1025.0
20260502234520 72 0 0.0 0.0 0.00 0.00 0.00 54 1025.0
20260502234021 72 0 0.0 0.0 0.00 0.00 0.00 54 1025.0
20260502233521 72 0 0.0 0.0 0.00 0.00 0.00 54 1025.0
20260502233021 72 0 0.0 0.0 0.00 0.00 0.00 54 1025.0
20260502232021 72 0 0.0 0.0 0.00 0.00 0.00 52 1025.0
20260502231520 72 0 0.0 0.0 0.00 0.00 0.00 52 1025.0
20260502231022 73 0 0.0 0.0 0.00 0.00 0.00 53 1025.0
20260502230520 73 0 0.0 0.0 0.00 0.00 0.00 53 1025.0
20260502225520 74 0 0.0 0.0 0.00 0.00 0.00 53 1025.0
20260502224520 73 0 0.0 0.0 0.00 0.00 0.00 53 1025.0
20260502224021 73 0 0.0 0.0 0.00 0.00 0.00 53 1026.0
20260502223521 72 0 0.0 0.0 0.00 0.00 0.00 53 1026.0
20260502223021 72 0 0.0 0.0 0.00 0.00 0.00 55 1026.0
20260502221521 71 0 0.0 0.0 0.00 0.00 0.00 54 1025.0
20260502221021 71 0 0.0 0.0 0.00 0.00 0.00 54 1026.0
20260502220521 71 0 0.0 0.0 0.00 0.00 0.00 55 1026.0
20260502220021 71 0 0.0 0.0 0.00 0.00 0.00 55 1026.0
20260502215021 72 0 0.0 0.0 0.00 0.00 0.00 56 1026.0
20260502213021 69 0 0.0 0.0 0.00 0.00 0.00 57 1026.0
20260502212020 69 0 0.0 0.0 0.00 0.00 0.00 58 1026.0
20260502211520 68 0 0.0 0.0 0.00 0.00 0.00 57 1026.0
20260502211021 69 0 0.0 0.0 0.00 0.00 0.00 57 1027.0
20260502210521 69 0 0.0 0.0 0.00 0.00 0.00 57 1027.0
20260502210020 69 0 0.0 0.0 0.00 0.00 0.00 57 1027.0
20260502205520 69 0 0.0 0.0 0.00 0.00 0.00 57 1027.0
20260502205021 69 0 0.0 0.0 0.00 0.00 0.00 58 1027.0
20260502204521 69 0 0.0 0.0 0.00 0.00 0.00 58 1027.0
20260502204021 68 0 0.0 0.0 0.00 0.00 0.00 58 1027.0
20260502203521 69 0 0.0 0.0 0.00 0.00 0.00 59 1027.0
20260502203021 69 0 0.0 0.0 0.00 0.00 0.00 60 1027.0
20260502202020 68 0 0.0 0.0 0.00 0.00 0.00 63 1028.0
20260502201521 67 0 0.0 0.0 0.00 0.00 0.00 62 1028.0
20260502201021 67 0 0.0 0.0 0.00 0.00 0.00 63 1028.0
20260502200520 66 0 0.0 0.0 0.00 0.00 0.00 64 1028.0
20260502200021 66 0 0.0 0.0 0.00 0.00 0.00 65 1028.0
20260502195521 65 0 0.0 0.0 0.00 0.00 0.00 66 1028.0
20260502195021 64 0 0.0 0.0 0.00 0.00 0.00 68 1028.0
20260502194521 63 0 0.0 0.0 0.00 0.00 0.00 69 1028.0
20260502194020 63 0 0.0 0.0 0.00 0.00 0.00 69 1028.0
20260502193520 63 0 0.0 0.0 0.00 0.00 0.00 70 1028.0
20260502193021 63 0 0.0 0.0 0.00 0.00 0.00 72 1028.0
20260502192520 62 0 0.0 0.0 0.00 0.00 0.00 73 1028.0
20260502192020 61 0 0.0 0.0 0.00 0.00 0.00 74 1028.0
20260502191520 60 0 0.0 0.0 0.00 0.00 0.00 75 1028.0
20260502191021 60 0 0.0 0.0 0.00 0.00 0.00 76 1029.0
20260502190521 60 0 0.0 0.0 0.00 0.00 0.00 77 1029.0
20260502190021 60 0 0.0 0.0 0.00 0.00 0.00 78 1029.0
20260502185520 60 0 0.0 0.0 0.00 0.00 0.00 80 1029.0
20260502185021 59 0 0.0 0.0 0.00 0.00 0.00 81 1029.0
20260502184520 59 0 0.0 0.0 0.00 0.00 0.00 81 1029.0
20260502184020 58 0 0.0 0.0 0.00 0.00 0.00 81 1028.0
20260502183520 58 0 0.0 0.0 0.00 0.00 0.00 81 1028.0
20260502182521 57 0 0.0 0.0 0.00 0.00 0.00 80 1029.0
20260502182021 56 0 0.0 0.0 0.00 0.00 0.00 79 1029.0
20260502181521 56 0 0.0 0.0 0.00 0.00 0.00 78 1029.0
20260502181021 56 0 0.0 0.0 0.00 0.00 0.00 78 1028.0
20260502180521 56 0 0.0 0.0 0.00 0.00 0.00 78 1028.0